Wind_Speed
34 34 34 35 36 37 37 37 37 37 35 35 35 35 35 35 34 34 36 37 37 37 36 36 36 37 39 39 39 38 37 38 38 37 38 38 39 40
34 34 34 34 35 36 35 36 36 36 35 34 33 33 33 33 34 34 34 34 34 33 34 34 34 35 36 36 36 35 35 35 36 36 37 37 38 39
34 34 34 34 34 34 35 35 35 35 35 33 33 33 33 33 33 32 32 31 31 32 33 33 32 32 32 32 32 33 33 34 34 35 36 37 37 37
34 34 34 34 34 33 34 34 34 34 35 34 33 32 33 32 30 30 30 29 29 30 30 31 31 31 31 30 31 31 31 32 33 34 35 36 36 35
33 33 33 33 33 33 33 33 33 33 34 34 32 31 31 30 29 28 28 28 28 28 29 30 30 30 29 29 29 30 31 31 31 32 33 34 34 33
32 32 32 32 33 33 33 33 33 33 33 32 31 30 28 27 26 25 26 27 27 27 27 28 29 29 28 29 29 30 30 30 31 31 32 32 31 32
31 31 31 32 32 32 32 32 32 32 30 29 28 28 27 26 25 25 25 25 25 25 26 27 28 28 27 28 28 29 29 29 29 29 29 30 30 30
30 30 30 31 31 31 32 32 31 30 29 28 26 25 24 24 24 24 24 24 23 23 24 26 26 26 26 26 27 27 28 28 28 28 28 29 29 29
30 30 30 30 30 31 31 30 29 29 27 26 24 22 22 23 23 24 23 22 23 24 25 25 26 27 26 25 26 27 26 26 26 26 27 27 27 27
30 30 30 30 30 30 29 28 27 26 25 23 22 21 22 22 23 23 22 22 24 25 25 25 26 26 26 25 24 25 25 25 25 26 26 25 25 25
29 29 29 29 29 28 26 25 24 24 23 22 22 21 21 21 22 22 22 22 24 25 25 26 26 27 26 25 25 25 25 25 25 26 25 26 25 24
29 28 27 27 26 25 24 23 23 22 22 22 22 22 22 22 21 20 21 22 24 25 26 26 27 27 26 25 25 25 25 26 25 25 24 24 24 23
27 26 25 24 23 23 22 22 22 22 22 22 22 22 21 20 20 20 21 23 24 25 26 27 27 27 26 25 25 25 24 25 25 25 24 24 23 22
24 24 24 23 23 23 23 21 21 22 21 21 20 20 19 19 20 21 22 24 25 26 27 27 27 26 26 26 25 25 25 24 24 24 23 23 22 22
23 23 23 23 23 23 22 21 20 20 20 19 19 19 19 20 21 22 24 25 26 27 27 28 28 27 26 26 26 25 24 24 23 22 21 21 21 22
24 24 24 23 23 22 21 19 19 19 19 19 19 19 20 21 22 23 24 25 26 27 27 28 28 27 27 27 26 25 24 23 22 21 21 21 21 20
25 24 23 23 22 20 19 19 19 19 19 20 20 21 21 22 23 24 24 25 26 26 27 28 28 27 27 27 26 25 23 23 22 21 20 20 20 18
23 22 21 20 19 19 19 20 20 20 20 20 20 20 21 22 22 24 25 26 26 27 27 28 28 27 27 27 25 23 22 21 21 20 20 19 18 17
21 20 19 19 19 19 19 19 19 19 19 19 20 20 21 22 23 24 25 26 27 27 28 28 28 27 26 25 23 21 21 20 20 19 19 17 17 16
20 20 20 19 19 19 19 19 18 19 19 19 20 21 22 23 24 25 26 27 27 27 28 28 27 26 25 23 21 19 19 19 18 17 17 17 16 15
21 20 20 19 19 19 19 19 19 19 19 20 21 21 22 23 25 26 27 28 28 27 28 28 27 25 23 21 19 18 18 18 17 16 15 15 14 14
21 20 19 19 19 19 19 20 20 20 20 21 21 22 23 24 25 26 27 27 27 27 27 27 25 23 22 20 19 18 17 16 15 14 14 13 12 11
20 19 19 19 19 19 20 20 20 20 21 21 22 23 24 25 26 26 27 27 27 27 27 26 23 22 20 19 18 17 16 15 14 12 12 11 10 9
Wind_Direction
291 293 294 296 297 298 299 299 300 302 301 299 297 296 297 298 297 296 294 292 291 290 290 291 289 288 287 287 287 286 286 284 284 284 284 284 284 284
291 293 294 297 298 299 299 301 302 303 302 301 300 298 298 299 297 298 297 297 295 292 291 293 293 292 291 290 289 288 289 287 285 286 286 286 286 287
290 292 294 297 298 300 301 301 302 302 303 303 301 300 299 298 298 299 299 299 297 295 293 294 295 297 297 294 291 291 291 289 287 287 288 288 288 288
290 291 293 295 297 299 301 303 303 303 303 302 301 300 300 298 298 297 298 299 299 298 296 296 299 301 300 296 295 295 295 294 291 290 290 291 290 290
291 292 293 295 296 298 301 303 303 304 304 303 300 299 300 299 298 297 299 301 301 300 300 301 304 304 301 301 301 300 298 297 296 295 294 293 291 291
291 293 293 294 296 298 300 301 303 304 304 303 300 299 299 302 301 299 299 302 302 303 305 306 306 306 304 303 303 302 300 301 300 299 298 296 295 293
291 293 293 294 296 298 300 301 303 303 303 303 302 300 299 301 300 300 301 301 303 307 309 309 309 309 306 303 302 302 302 302 303 303 302 301 299 296
290 291 293 294 295 298 301 302 303 304 304 303 302 300 300 300 301 301 301 303 304 307 309 311 312 312 309 307 306 305 305 305 304 305 305 304 302 300
289 290 292 293 294 297 299 301 303 306 305 305 303 300 300 299 300 301 302 305 309 309 310 311 312 313 313 313 311 309 309 309 308 308 311 309 307 306
288 289 291 293 294 295 298 300 303 304 304 305 304 303 302 301 302 303 303 306 310 311 312 314 315 315 314 314 313 312 311 310 310 312 313 312 310 308
288 290 292 293 294 295 297 299 301 302 304 305 304 305 306 304 306 307 307 309 311 312 312 314 315 316 315 315 314 313 312 310 312 313 312 312 310 309
287 289 292 295 294 293 295 297 299 301 304 306 306 306 307 306 307 307 307 310 312 313 313 313 314 314 314 313 314 314 312 312 313 313 312 312 309 307
285 287 290 292 292 292 294 297 299 301 302 303 304 306 308 309 309 309 310 311 312 314 314 314 314 314 313 314 316 315 314 314 315 315 314 313 312 308
285 286 288 289 290 293 293 294 296 299 301 302 303 306 309 311 312 313 313 313 312 313 315 316 315 315 314 315 316 316 316 315 316 317 316 315 315 314
285 285 286 287 289 290 290 290 292 295 299 301 303 305 307 309 311 312 314 315 314 315 316 316 316 315 314 315 316 315 314 315 317 318 319 318 317 316
283 284 283 283 286 287 286 286 289 292 296 299 301 304 307 309 311 312 313 315 317 318 318 318 317 316 315 316 317 316 316 316 316 318 319 319 319 318
283 283 282 281 282 283 285 287 289 292 296 298 300 302 305 307 309 311 314 315 316 317 319 319 318 317 316 317 316 315 316 318 319 320 320 320 321 322
282 283 283 281 277 279 284 288 290 292 296 298 300 303 306 308 310 312 314 315 316 316 317 318 318 316 317 317 316 315 316 317 319 320 321 322 323 324
277 279 280 280 277 277 281 285 288 292 295 297 301 304 306 310 312 314 314 315 316 317 318 318 318 317 317 317 316 315 317 319 320 321 321 322 324 327
276 276 278 280 278 278 280 284 288 293 294 298 301 304 306 310 312 314 315 315 315 316 318 320 319 319 320 320 319 317 318 321 321 320 321 322 324 327
275 275 276 277 277 278 279 283 287 292 295 298 302 305 306 309 312 314 316 316 316 316 318 319 319 319 320 321 321 320 320 321 321 321 323 323 326 328
273 273 275 277 277 277 279 282 286 290 294 298 301 304 306 308 311 314 316 317 317 317 318 318 317 317 318 319 320 321 322 321 319 321 324 322 322 327
270 270 273 276 277 278 279 282 285 289 293 297 300 303 305 308 310 313 316 317 317 318 319 318 316 314 315 316 319 320 321 320 319 320 323 325 328 335
Height
5686 5683 5680 5677 5674 5670 5667 5663 5660 5657 5655 5651 5647 5643 5639 5636 5633 5630 5628 5626 5624 5621 5619 5616 5613 5611 5609 5607 5605 5603 5601 5599 5598 5596 5595 5593 5592 5591
5678 5675 5673 5670 5666 5662 5659 5655 5651 5648 5645 5642 5638 5634 5631 5628 5625 5622 5620 5617 5614 5612 5610 5607 5605 5602 5599 5596 5594 5592 5591 5589 5588 5586 5584 5583 5581 5579
5670 5668 5665 5662 5658 5655 5651 5648 5644 5640 5637 5634 5631 5627 5624 5621 5618 5615 5612 5609 5606 5604 5602 5599 5597 5594 5591 5588 5585 5583 5582 5580 5578 5576 5574 5573 5571 5569
5662 5659 5657 5654 5651 5648 5644 5641 5637 5633 5629 5627 5624 5620 5617 5614 5611 5608 5605 5603 5600 5597 5595 5592 5589 5586 5583 5580 5578 5576 5573 5571 5569 5567 5565 5563 5561 5558
5654 5651 5649 5646 5644 5641 5637 5634 5630 5626 5622 5619 5616 5613 5610 5607 5605 5602 5599 5597 5594 5591 5589 5586 5583 5580 5576 5573 5571 5568 5566 5563 5561 5558 5555 5553 5551 5548
5646 5643 5641 5639 5636 5633 5630 5627 5623 5619 5615 5612 5609 5606 5604 5601 5599 5597 5595 5592 5589 5586 5584 5581 5577 5574 5570 5567 5564 5561 5559 5556 5553 5550 5547 5544 5542 5539
5638 5636 5634 5631 5629 5626 5623 5620 5616 5612 5609 5605 5603 5600 5598 5596 5594 5592 5589 5587 5585 5582 5580 5576 5572 5569 5565 5562 5558 5555 5552 5549 5546 5543 5539 5536 5534 5531
5631 5629 5627 5624 5622 5619 5616 5613 5609 5606 5603 5600 5597 5595 5593 5591 5589 5587 5585 5583 5581 5579 5575 5572 5568 5564 5560 5556 5552 5549 5546 5543 5540 5536 5533 5529 5527 5524
5624 5622 5620 5618 5615 5613 5610 5607 5603 5599 5596 5593 5591 5590 5588 5586 5584 5582 5580 5578 5576 5574 5571 5568 5564 5560 5555 5551 5547 5543 5540 5537 5534 5530 5527 5524 5520 5517
5616 5615 5613 5611 5608 5606 5604 5601 5598 5594 5591 5589 5587 5585 5583 5581 5579 5578 5575 5574 5572 5569 5566 5563 5559 5555 5551 5546 5542 5539 5535 5532 5529 5526 5522 5519 5515 5512
5609 5608 5606 5604 5602 5600 5598 5596 5593 5590 5587 5585 5583 5581 5579 5577 5575 5573 5571 5570 5568 5565 5561 5558 5555 5551 5547 5542 5538 5534 5531 5527 5524 5521 5517 5513 5510 5508
5602 5601 5599 5597 5595 5594 5592 5590 5588 5586 5584 5581 5579 5577 5575 5573 5571 5569 5567 5565 5563 5560 5557 5553 5549 5545 5542 5538 5534 5530 5526 5522 5519 5515 5512 5508 5505 5502
5595 5594 5593 5591 5590 5588 5587 5585 5583 5582 5580 5578 5576 5573 5571 5569 5567 5565 5563 5561 5558 5555 5551 5548 5544 5540 5535 5533 5529 5525 5521 5517 5514 5510 5507 5503 5500 5497
5589 5588 5587 5586 5585 5583 5582 5580 5578 5577 5575 5573 5572 5570 5568 5566 5564 5562 5559 5556 5553 5550 5546 5542 5538 5534 5530 5527 5524 5520 5517 5512 5509 5506 5502 5499 5496 5493
5584 5582 5581 5580 5579 5578 5577 5575 5573 5572 5571 5569 5568 5566 5565 5562 5560 5557 5554 5551 5548 5544 5540 5536 5533 5529 5525 5522 5518 5515 5512 5509 5505 5502 5498 5495 5492 5489
5577 5576 5575 5574 5573 5572 5571 5570 5569 5568 5567 5565 5564 5562 5560 5558 5556 5553 5550 5547 5543 5540 5535 5531 5527 5524 5520 5516 5513 5510 5506 5503 5500 5497 5494 5491 5488 5485
5571 5570 5569 5568 5568 5567 5566 5565 5564 5563 5562 5561 5559 5558 5556 5554 5551 5548 5545 5542 5539 5535 5531 5527 5523 5519 5515 5512 5508 5505 5501 5499 5496 5493 5490 5488 5485 5482
5565 5564 5563 5563 5562 5562 5561 5561 5559 5558 5557 5556 5555 5553 5551 5549 5546 5544 5540 5537 5534 5530 5526 5522 5518 5514 5511 5507 5504 5500 5497 5494 5491 5489 5486 5483 5481 5478
5559 5559 5558 5558 5557 5557 5556 5556 5555 5554 5553 5551 5550 5548 5546 5544 5542 5539 5535 5532 5528 5525 5521 5517 5513 5509 5506 5503 5499 5495 5492 5490 5487 5485 5482 5479 5477 5475
5554 5553 5553 5552 5552 5551 5551 5551 5550 5549 5548 5546 5545 5543 5541 5539 5537 5534 5530 5527 5524 5520 5516 5512 5508 5504 5500 5497 5494 5492 5488 5486 5483 5481 5479 5477 5474 5472
5548 5548 5547 5547 5546 5546 5546 5545 5545 5544 5543 5541 5540 5538 5536 5534 5532 5529 5525 5522 5518 5515 5511 5507 5503 5500 5496 5493 5491 5488 5485 5482 5479 5477 5475 5473 5472 5470
5542 5542 5542 5541 5541 5541 5540 5540 5539 5539 5538 5536 5535 5533 5531 5529 5526 5523 5520 5517 5513 5510 5506 5502 5499 5495 5492 5490 5487 5484 5482 5479 5476 5474 5472 5471 5469 5468
5536 5536 5536 5536 5535 5535 5535 5534 5534 5533 5532 5531 5530 5528 5526 5523 5521 5518 5515 5511 5508 5505 5501 5498 5494 5491 5488 5486 5483 5481 5478 5476 5474 5472 5470 5468 5467 5466